Temp
53 46 42 49 53 54 49 48 47 50 52 48 48 50 54 59 58 57 59 60 62 64 68 70 71 71 70 70 70 70 70 70 68 65 64 64 65 65 66 66 67 69 69 69
47 41 53 57 56 53 49 46 44 49 53 47 46 47 52 56 56 57 58 60 61 62 64 67 68 68 68 68 68 69 69 69 68 67 66 66 66 66 66 66 65 66 67 68
44 49 55 52 51 50 48 46 47 46 49 49 44 42 47 53 56 59 61 61 61 61 61 62 63 62 64 64 65 66 67 68 68 69 68 66 66 65 64 64 64 66 66 66
46 53 50 46 47 50 44 53 52 48 42 34 44 30 44 51 52 55 56 55 57 58 58 60 60 60 61 61 61 62 65 66 67 67 66 64 62 61 63 64 65 66 67 66
43 45 45 44 47 52 46 50 48 46 40 37 37 32 41 46 48 52 53 54 56 56 57 56 57 58 58 57 55 57 61 62 64 63 63 62 62 63 64 64 64 65 65 66
46 51 49 49 52 52 52 47 46 44 39 24 38 37 37 43 48 49 52 53 55 54 54 56 56 57 56 55 55 56 58 58 61 61 61 61 61 62 61 61 61 62 63 63
43 43 48 50 45 48 47 41 27 25 25 23 40 36 42 49 50 52 52 53 53 55 54 55 53 53 54 52 53 55 55 55 56 56 56 58 59 60 60 59 58 58 58 58
32 29 42 48 45 41 42 42 30 19 22 27 36 30 40 50 53 55 55 52 54 54 54 53 53 52 51 52 52 52 52 52 54 54 54 55 55 56 56 56 56 55 54 55
36 36 47 48 50 49 41 35 44 34 25 23 32 39 48 51 51 51 49 52 51 54 54 53 52 52 51 50 50 51 51 51 51 52 52 52 52 53 53 53 53 52 52 55
43 32 43 45 47 47 44 48 34 32 19 19 30 32 36 44 47 51 49 49 51 52 53 54 52 51 51 50 50 50 51 49 50 50 50 50 49 50 50 50 49 49 50 50
44 39 34 42 39 38 39 38 41 40 32 26 25 30 45 47 48 48 49 50 49 48 51 53 53 52 50 50 49 48 48 48 48 48 48 47 47 48 48 47 47 47 48 49
44 39 29 35 41 45 46 41 42 30 29 31 31 30 48 49 49 51 50 52 49 50 52 53 52 51 50 49 48 48 47 47 47 47 47 46 46 47 46 46 46 46 46 48
44 34 26 29 36 40 38 42 44 43 37 29 25 31 50 50 48 50 50 51 53 53 50 53 52 50 49 48 48 47 46 45 46 46 45 44 44 44 44 44 45 46 45 46
48 36 33 28 33 39 33 39 43 41 32 32 33 36 43 46 48 50 51 50 52 52 54 53 52 51 50 49 48 47 46 46 44 44 44 43 43 44 44 44 44 44 45 44
44 29 33 39 38 39 36 37 39 38 39 32 38 38 45 47 48 48 51 53 52 53 54 53 53 51 50 49 48 47 45 44 44 43 43 42 42 43 43 42 42 42 42 43
41 27 32 26 37 37 31 37 40 40 41 40 40 39 50 49 50 49 52 52 52 53 53 54 54 53 51 50 48 48 46 43 43 42 41 41 41 41 40 40 40 41 41 41
36 33 29 24 33 30 26 34 38 39 43 41 35 43 48 47 49 50 50 51 51 52 53 53 53 52 51 49 49 47 45 43 41 41 40 40 39 38 38 38 38 37 37 37
35 32 30 22 22 20 34 44 43 40 43 45 45 47 49 49 51 50 52 51 53 53 52 53 52 52 52 49 47 46 43 41 39 39 38 37 36 35 34 35 34 34 34 33
42 36 29 26 22 28 33 39 40 37 37 46 45 48 50 49 46 46 52 52 51 52 52 51 50 49 49 49 45 42 39 37 36 35 34 33 33 32 31 31 31 30 30 30
38 39 31 28 22 19 34 44 45 44 28 46 48 47 47 46 38 44 51 50 49 48 48 44 42 42 43 41 39 37 35 34 34 33 32 31 31 31 30 30 30 29 30 31
29 30 28 27 25 26 38 41 45 27 32 46 47 48 48 43 45 46 47 47 45 45 43 39 38 36 35 36 36 34 33 32 31 30 29 29 29 30 29 28 28 28 28 30
28 25 25 23 23 20 43 39 36 43 43 45 43 44 42 42 42 43 44 43 44 43 36 34 33 31 32 33 34 32 28 28 28 28 27 25 25 28 27 25 26 27 27 27
27 34 26 30 29 40 43 42 44 45 45 42 43 43 44 42 40 40 41 40 40 40 35 33 30 28 27 29 30 26 25 26 24 22 21 21 23 25 26 26 25 25 26 27
32 37 30 33 37 39 39 40 42 43 43 44 43 43 42 41 40 37 36 36 35 33 31 29 27 24 22 22 23 21 22 21 20 19 19 20 21 24 24 24 25 24 24 24
33 36 30 30 34 37 40 39 41 40 40 40 38 40 39 38 37 36 35 35 33 31 28 26 24 22 18 18 16 15 17 17 19 18 19 19 22 22 22 22 23 24 24 24
34 33 31 29 39 39 40 38 39 38 37 38 37 36 35 36 36 35 33 32 30 25 23 22 20 17 14 13 11 10 10 15 18 18 19 20 20 20 21 21 21 27 26 27
MSLP
1016.60 1016.42 1016.10 1015.81 1015.56 1015.34 1015.44 1015.37 1015.40 1015.33 1016.28 1016.47 1016.22 1015.80 1014.95 1014.35 1014.14 1014.10 1014.08 1013.86 1013.74 1013.41 1013.08 1013.14 1013.06 1013.20 1013.49 1013.74 1014.09 1014.28 1014.62 1014.79 1015.18 1015.74 1016.25 1016.59 1016.80 1016.91 1017.26 1017.35 1017.52 1017.60 1017.57 1017.55
1017.03 1016.36 1015.77 1015.53 1015.53 1015.58 1015.72 1015.93 1015.83 1016.00 1016.57 1017.23 1016.87 1016.31 1015.33 1014.51 1014.04 1014.03 1013.92 1013.68 1013.53 1013.52 1013.20 1013.09 1013.16 1013.08 1013.21 1013.58 1013.91 1014.12 1014.34 1014.56 1014.79 1015.05 1015.43 1015.84 1016.21 1016.32 1016.44 1016.62 1016.93 1017.14 1017.41 1017.47
1016.64 1016.27 1015.85 1015.88 1015.86 1015.81 1015.98 1016.23 1016.18 1016.49 1016.99 1017.14 1017.27 1016.30 1014.67 1013.63 1013.65 1013.37 1013.19 1013.27 1013.53 1013.53 1013.37 1013.28 1013.35 1013.43 1013.50 1013.65 1013.95 1014.15 1014.22 1014.36 1014.51 1014.68 1015.03 1015.48 1015.78 1015.94 1016.11 1016.36 1016.55 1016.62 1016.92 1017.15
1017.08 1016.62 1016.21 1016.34 1016.23 1016.29 1016.44 1016.30 1016.64 1017.02 1017.67 1017.98 1017.68 1016.55 1014.87 1013.83 1013.12 1012.94 1012.94 1013.13 1013.28 1013.45 1013.39 1013.39 1013.51 1013.76 1014.03 1014.20 1014.34 1014.30 1014.23 1014.37 1014.41 1014.48 1014.68 1015.11 1015.45 1015.88 1015.93 1016.13 1016.15 1016.15 1016.33 1016.80
1017.14 1016.68 1016.84 1016.78 1016.58 1016.69 1017.05 1016.92 1017.31 1017.89 1018.45 1018.59 1017.84 1017.50 1014.41 1013.54 1013.15 1012.83 1012.90 1012.98 1013.28 1013.36 1013.68 1013.93 1014.21 1014.39 1014.69 1014.91 1014.96 1014.78 1014.50 1014.52 1014.65 1014.70 1014.78 1015.07 1015.50 1015.77 1015.65 1015.82 1015.93 1016.18 1016.18 1016.29
1017.47 1017.22 1017.14 1016.93 1016.83 1016.94 1017.46 1017.97 1018.50 1018.96 1019.41 1019.14 1018.07 1017.22 1014.59 1013.45 1012.72 1012.83 1013.03 1013.33 1013.47 1013.65 1013.94 1014.39 1014.77 1014.86 1015.42 1015.57 1015.53 1015.33 1015.05 1015.10 1015.15 1015.13 1015.10 1015.17 1015.50 1015.76 1015.93 1016.01 1016.21 1016.36 1016.46 1016.52
1017.74 1017.81 1017.40 1017.29 1017.41 1017.67 1018.10 1018.45 1019.45 1020.17 1020.27 1018.87 1017.38 1016.91 1014.50 1013.11 1012.70 1012.90 1013.33 1013.64 1013.63 1013.77 1014.19 1014.52 1015.18 1015.46 1015.67 1016.15 1016.02 1015.97 1016.00 1016.02 1015.81 1015.70 1015.67 1015.64 1015.66 1015.96 1016.30 1016.53 1016.79 1016.90 1016.89 1017.17
1017.44 1018.09 1017.74 1017.55 1017.24 1017.27 1017.82 1017.94 1018.65 1019.67 1020.24 1019.12 1017.82 1016.13 1013.95 1012.98 1012.89 1013.00 1013.40 1013.84 1013.93 1013.95 1014.32 1014.86 1015.34 1015.85 1016.10 1016.34 1016.54 1016.63 1016.87 1016.86 1016.57 1016.40 1016.33 1016.29 1016.24 1016.49 1016.88 1017.08 1017.27 1017.57 1017.58 1017.69
1016.51 1016.96 1016.94 1017.27 1017.27 1017.41 1017.96 1018.06 1018.47 1019.33 1020.20 1019.67 1017.63 1015.65 1013.89 1012.92 1013.19 1013.51 1013.87 1014.06 1014.10 1014.21 1014.51 1015.16 1015.58 1016.03 1016.46 1016.73 1016.81 1017.07 1017.18 1017.26 1017.37 1017.17 1017.04 1017.04 1017.02 1017.22 1017.52 1017.75 1017.89 1018.09 1018.05 1018.16
1016.06 1016.93 1017.43 1017.64 1017.73 1017.58 1017.56 1017.93 1018.80 1019.45 1019.97 1019.10 1016.93 1015.40 1013.83 1013.46 1013.62 1013.96 1014.33 1014.37 1014.36 1014.44 1014.78 1015.28 1015.78 1016.34 1016.63 1016.94 1017.14 1017.37 1017.36 1017.41 1017.51 1017.48 1017.54 1017.66 1017.69 1017.77 1017.95 1018.11 1018.31 1018.39 1018.38 1018.42
1016.32 1016.63 1018.26 1018.15 1017.79 1017.45 1017.94 1017.71 1017.94 1018.34 1018.78 1018.28 1017.22 1015.50 1014.11 1013.37 1013.63 1014.15 1014.50 1014.61 1014.74 1015.02 1015.11 1015.42 1015.75 1016.21 1016.66 1016.99 1017.23 1017.39 1017.49 1017.60 1017.75 1017.82 1017.92 1018.04 1018.16 1018.19 1018.30 1018.41 1018.53 1018.57 1018.60 1018.56
1016.34 1016.80 1017.74 1017.76 1017.69 1017.59 1017.53 1017.54 1017.70 1017.94 1018.25 1018.05 1017.49 1015.84 1014.18 1013.99 1013.95 1014.11 1014.37 1014.54 1014.69 1014.68 1014.77 1015.13 1015.61 1016.09 1016.62 1017.03 1017.20 1017.33 1017.57 1017.76 1017.91 1017.99 1018.07 1018.20 1018.27 1018.38 1018.54 1018.64 1018.72 1018.76 1018.77 1018.72
1016.01 1016.85 1017.72 1018.38 1018.48 1017.93 1017.49 1017.27 1017.21 1017.49 1017.79 1017.65 1017.52 1015.68 1014.34 1014.04 1014.08 1014.15 1014.24 1014.14 1014.11 1014.14 1014.45 1014.80 1015.24 1015.71 1016.12 1016.56 1016.99 1017.18 1017.40 1017.70 1017.97 1018.07 1018.19 1018.27 1018.31 1018.37 1018.52 1018.63 1018.71 1018.82 1018.84 1018.90
1015.82 1016.65 1016.58 1016.48 1016.33 1016.40 1016.92 1016.69 1016.73 1017.15 1017.62 1016.76 1016.32 1015.57 1014.65 1014.31 1014.13 1014.02 1013.94 1013.78 1013.85 1014.14 1014.37 1014.68 1015.05 1015.11 1015.36 1015.92 1016.47 1016.88 1017.23 1017.37 1017.70 1018.06 1018.24 1018.32 1018.38 1018.43 1018.53 1018.60 1018.68 1018.75 1018.84 1018.94
1016.22 1016.90 1017.14 1016.68 1016.47 1016.33 1016.04 1016.07 1016.23 1016.56 1015.82 1016.38 1015.25 1015.14 1014.55 1014.23 1014.18 1014.11 1014.02 1013.90 1013.95 1014.05 1014.34 1014.52 1014.71 1014.68 1014.76 1015.31 1015.80 1016.23 1016.77 1017.24 1017.66 1017.94 1018.16 1018.41 1018.47 1018.42 1018.53 1018.68 1018.86 1018.85 1018.90 1019.07
1016.30 1016.98 1017.19 1017.27 1016.83 1016.59 1016.27 1015.93 1015.70 1015.23 1015.24 1015.61 1014.86 1014.28 1014.24 1013.88 1013.93 1013.85 1013.68 1013.64 1013.79 1013.85 1013.94 1014.08 1014.15 1014.04 1014.31 1014.53 1014.95 1015.46 1016.01 1016.66 1017.24 1017.83 1018.17 1018.31 1018.44 1018.44 1018.70 1018.89 1019.04 1019.15 1019.31 1019.42
1016.30 1017.04 1017.76 1017.65 1017.02 1016.96 1016.84 1015.48 1015.03 1015.02 1014.56 1014.51 1014.33 1013.70 1013.82 1013.68 1013.56 1013.41 1013.45 1013.50 1013.48 1013.37 1013.45 1013.50 1013.58 1013.56 1013.64 1013.86 1014.05 1014.78 1015.38 1016.23 1016.99 1017.50 1017.86 1018.26 1018.65 1018.77 1018.86 1019.08 1019.07 1019.31 1019.68 1019.84
1015.81 1016.72 1017.45 1017.65 1017.59 1016.71 1014.85 1014.32 1014.55 1014.23 1013.74 1013.76 1013.63 1013.14 1012.81 1012.97 1012.86 1012.99 1013.15 1013.11 1013.09 1012.98 1013.05 1013.19 1013.12 1013.08 1013.14 1013.03 1013.43 1014.07 1015.00 1015.90 1016.72 1017.33 1017.83 1018.24 1018.62 1018.77 1019.19 1019.01 1019.14 1019.36 1019.76 1019.97
1015.34 1016.21 1016.74 1017.01 1016.88 1015.65 1014.56 1013.34 1013.03 1013.21 1012.79 1012.92 1012.90 1012.07 1011.99 1012.31 1012.37 1012.35 1012.32 1012.24 1012.28 1012.34 1012.50 1012.63 1012.82 1013.04 1013.01 1012.98 1013.28 1013.91 1014.91 1015.71 1016.50 1017.22 1017.78 1018.27 1018.56 1018.88 1019.48 1019.25 1019.44 1019.65 1019.93 1020.02
1015.43 1015.66 1016.47 1016.58 1016.16 1015.10 1013.02 1012.25 1012.41 1012.66 1012.71 1011.59 1011.29 1011.67 1011.77 1012.00 1012.40 1012.19 1011.91 1011.89 1012.01 1012.30 1012.79 1013.20 1013.53 1013.70 1013.69 1013.69 1013.74 1014.39 1015.29 1015.96 1016.67 1017.30 1018.03 1018.67 1019.17 1019.38 1019.67 1019.42 1019.63 1019.80 1019.93 1020.00
1015.33 1015.55 1015.65 1015.54 1015.27 1014.28 1011.89 1011.93 1011.84 1012.74 1011.72 1010.53 1011.20 1011.22 1011.40 1012.00 1012.09 1012.18 1012.05 1012.29 1012.43 1012.74 1013.17 1013.84 1014.24 1014.63 1014.75 1014.58 1014.71 1015.61 1016.22 1016.81 1017.19 1017.55 1018.33 1019.02 1019.49 1019.90 1020.01 1019.78 1019.91 1019.85 1019.87 1020.05
1014.33 1014.95 1015.03 1015.00 1014.47 1013.76 1010.20 1011.62 1011.51 1010.19 1010.65 1010.65 1010.81 1011.06 1011.30 1011.50 1011.80 1012.06 1012.35 1012.76 1013.07 1013.31 1013.72 1014.25 1014.83 1015.37 1015.60 1015.60 1015.75 1016.14 1016.92 1017.75 1018.16 1018.71 1019.15 1019.52 1019.73 1020.03 1020.21 1020.15 1020.24 1020.10 1019.91 1020.08
1013.69 1012.34 1013.04 1013.26 1012.39 1010.68 1010.45 1010.41 1010.33 1010.44 1010.66 1010.86 1011.03 1011.19 1011.39 1011.65 1011.97 1012.48 1012.68 1012.98 1013.20 1013.55 1014.25 1014.87 1015.43 1015.99 1016.17 1016.40 1016.51 1017.10 1017.42 1017.59 1018.45 1019.00 1019.64 1020.32 1020.33 1020.27 1020.16 1020.20 1020.35 1020.59 1020.51 1020.53
1012.70 1012.10 1012.20 1012.57 1010.95 1010.65 1010.54 1010.53 1010.58 1010.61 1010.78 1010.76 1010.94 1011.41 1011.72 1012.18 1012.16 1012.38 1012.70 1012.98 1013.63 1014.10 1014.53 1015.17 1015.95 1016.68 1016.84 1017.03 1017.62 1018.24 1018.57 1018.45 1018.49 1019.33 1020.19 1020.29 1020.52 1020.64 1020.63 1020.54 1020.62 1020.78 1020.89 1020.66
1012.10 1012.00 1011.85 1011.71 1010.78 1011.00 1010.39 1010.35 1010.56 1010.73 1010.84 1010.98 1011.24 1011.65 1011.92 1012.25 1012.37 1012.83 1012.89 1013.36 1013.72 1014.30 1015.02 1015.44 1016.13 1017.29 1018.19 1017.98 1018.37 1019.15 1019.21 1019.32 1019.49 1019.56 1020.10 1020.66 1020.82 1020.99 1021.16 1021.27 1021.26 1021.45 1021.22 1021.22
1011.34 1011.00 1011.42 1011.02 1010.75 1010.76 1010.27 1009.79 1010.06 1010.69 1011.11 1011.18 1011.57 1011.74 1012.11 1012.60 1012.85 1013.19 1013.26 1013.55 1013.95 1014.62 1015.31 1016.15 1016.73 1017.60 1018.81 1019.34 1019.56 1020.01 1020.21 1019.77 1019.43 1020.13 1020.35 1020.58 1020.99 1021.21 1021.54 1021.78 1021.51 1021.46 1021.59 1021.81
Wind_Speed
5 4 8 11 10 4 4 5 6 4 4 2 6 9 11 8 7 8 8 9 9 10 8 7 7 7 7 7 7 7 6 5 4 4 4 4 6 4 7 7 7 6 5 7
3 7 8 8 10 8 2 5 4 4 5 2 7 11 12 11 9 9 11 12 11 8 9 8 8 8 7 4 6 6 7 7 5 4 4 4 4 4 3 4 6 6 6 5
5 1 9 1 4 8 6 7 5 2 5 8 5 10 16 12 14 16 14 11 8 9 9 7 5 5 2 4 5 6 6 7 7 8 4 3 2 1 1 3 4 7 8 7
6 5 3 3 6 4 8 8 6 4 4 2 3 7 4 6 8 9 9 7 9 9 3 4 4 5 5 5 5 5 3 3 3 3 5 6 5 4 3 4 4 4 9 8
1 4 5 7 6 7 0 6 3 0 3 6 3 4 8 1 4 6 6 3 6 5 3 4 6 7 6 7 6 5 4 4 2 2 1 2 3 3 3 2 4 2 2 5
6 5 5 6 4 5 8 5 4 2 1 4 10 8 5 5 5 4 5 5 5 3 2 5 4 2 4 4 4 5 4 5 3 2 4 4 4 4 2 2 3 2 2 2
5 4 2 2 6 1 6 7 2 1 2 7 2 7 10 5 3 5 4 2 3 4 4 5 5 5 6 5 5 5 6 6 6 7 7 7 6 6 5 5 4 4 3 4
7 5 11 8 7 7 13 9 5 6 4 1 4 6 6 2 7 5 5 2 4 5 5 5 6 5 5 6 6 7 6 6 7 6 7 7 8 5 5 6 4 4 4 4
8 5 11 12 7 7 10 9 2 2 2 2 5 7 9 5 4 5 3 3 4 5 6 6 5 4 4 4 4 4 4 5 5 5 5 6 6 6 5 6 5 4 5 4
3 4 2 4 2 5 2 5 3 2 3 5 6 6 6 5 7 7 7 7 6 4 4 5 5 3 3 3 3 3 4 4 3 4 4 5 6 6 5 5 5 5 4 5
3 3 1 6 9 10 5 5 4 4 4 2 3 2 5 8 9 9 6 4 4 3 3 4 5 5 5 4 4 3 3 4 4 4 4 5 4 4 5 5 5 4 3 4
6 3 5 7 2 2 7 5 9 4 4 4 1 6 2 7 9 7 6 5 2 3 3 3 5 6 5 5 4 4 3 4 3 2 3 4 4 4 4 4 4 3 3 3
9 4 4 3 2 1 6 9 12 9 2 5 5 4 1 6 5 6 7 6 5 5 3 3 3 6 6 7 6 6 5 5 4 3 4 4 4 4 4 4 3 3 3 3
11 4 8 9 4 9 7 12 15 12 7 8 12 6 2 4 6 5 5 2 5 5 7 5 5 8 8 7 7 7 6 6 6 4 4 4 4 4 4 3 3 3 3 4
7 5 4 12 3 3 6 9 15 17 21 10 15 15 13 8 6 4 4 5 3 5 7 8 8 7 8 7 7 7 7 7 6 5 5 5 4 3 3 3 3 3 4 4
5 4 5 4 8 7 2 6 15 20 20 14 20 20 10 7 8 9 10 6 6 7 9 8 10 8 8 9 9 8 8 8 6 6 6 5 4 4 3 3 3 3 3 4
7 6 4 5 5 3 3 16 12 7 15 12 16 17 10 9 11 9 7 6 9 9 8 9 9 8 7 9 10 12 10 8 8 7 6 5 4 4 4 2 4 4 4 5
7 7 5 4 3 8 10 9 15 18 18 14 14 16 16 13 12 8 8 10 13 12 9 8 7 7 8 6 8 7 9 9 7 6 6 6 5 5 3 4 4 4 3 3
13 10 3 5 7 3 8 10 15 13 19 15 16 20 18 9 5 7 9 9 11 11 9 8 5 3 4 5 8 9 8 8 8 7 7 6 5 5 4 4 4 3 3 2
0 6 8 3 4 8 14 13 4 5 5 16 16 12 11 6 6 8 7 1 2 3 2 4 5 3 5 3 5 8 7 7 6 6 6 5 4 4 4 4 4 2 1 1
6 4 12 10 6 6 11 6 7 8 14 11 10 14 14 8 5 2 4 4 2 2 4 3 4 4 4 3 6 6 5 5 6 8 7 6 5 3 3 3 2 1 2 2
11 7 5 3 2 9 13 7 14 14 4 4 3 4 1 2 1 2 4 5 7 7 1 3 4 3 3 2 4 7 8 5 6 6 6 5 5 3 3 3 2 2 2 1
5 10 7 9 9 8 4 5 3 1 3 1 4 5 4 6 4 4 5 4 5 7 4 3 6 5 4 4 3 8 6 8 7 7 6 3 3 3 3 3 3 2 3 1
3 0 4 4 11 7 1 3 4 4 4 5 5 5 5 7 7 7 6 6 5 5 5 5 6 5 4 5 7 6 4 5 8 8 4 3 4 3 3 2 2 2 1 3
6 7 6 5 8 6 9 4 8 8 8 8 5 8 9 8 8 7 7 6 6 6 5 5 6 5 3 5 7 4 4 3 6 7 5 3 4 4 3 2 3 2 5 5
6 6 5 6 4 6 9 4 3 6 8 10 8 6 4 8 10 5 7 5 5 5 4 4 5 8 6 5 6 4 4 1 8 6 4 4 3 3 3 2 3 8 8 10
Wind_Direction
205 178 203 203 216 229 359 294 234 151 78 13 267 264 266 272 268 258 244 238 244 251 272 264 253 233 224 208 212 224 220 213 164 172 178 195 215 196 195 205 216 249 244 201
136 233 229 231 209 234 173 273 272 67 110 84 277 272 272 260 248 235 245 250 255 264 254 257 258 241 206 213 224 225 213 204 205 184 182 179 178 214 198 183 206 216 254 276
188 122 223 183 252 218 193 236 240 223 162 209 257 266 243 259 240 246 248 247 253 266 280 285 310 318 308 235 254 234 239 227 218 193 168 180 211 228 179 198 199 198 211 232
245 249 136 184 230 197 234 212 249 348 43 254 113 284 307 237 233 218 234 235 237 239 312 337 291 287 316 341 2 359 284 268 267 218 176 173 177 200 203 207 224 196 190 200
151 165 179 204 206 189 272 48 71 313 273 311 237 260 261 238 235 234 221 190 99 66 15 335 14 31 17 3 343 333 325 313 305 332 242 189 204 201 212 173 132 115 181 191
305 354 194 209 205 162 111 113 87 40 283 277 217 205 257 205 215 86 94 122 143 149 83 89 59 68 70 30 6 9 42 54 4 220 256 233 220 215 233 156 133 191 228 199
171 203 42 298 125 351 171 154 91 340 205 229 357 211 248 294 132 143 135 60 40 41 126 104 125 88 78 53 35 39 54 47 42 51 53 53 52 51 46 50 44 46 32 36
172 193 175 206 193 186 192 184 155 208 205 293 8 237 262 87 66 113 99 354 338 310 115 113 92 97 85 60 39 55 45 40 43 52 53 46 44 52 56 52 45 41 53 40
185 221 168 180 200 151 197 225 19 11 44 16 212 253 308 198 163 128 123 43 25 34 114 118 107 104 98 92 68 54 83 65 44 48 67 64 56 59 60 55 54 43 49 25
282 110 133 112 271 315 225 162 130 295 198 242 254 228 220 132 132 119 101 79 52 49 102 136 149 150 110 102 106 90 83 93 78 73 65 72 66 69 67 71 61 46 33 34
284 99 157 130 208 188 183 210 207 179 193 211 331 280 339 118 137 127 139 123 37 104 131 154 145 137 148 158 150 126 99 96 78 64 73 84 76 74 78 80 75 51 42 33
194 145 169 187 40 242 218 218 198 157 215 224 66 271 108 121 106 95 101 119 55 343 5 138 175 175 188 201 174 157 135 114 91 100 111 113 111 107 98 87 75 55 46 30
173 210 129 177 298 215 211 215 225 233 91 215 149 258 258 120 139 137 131 153 181 204 241 211 193 206 211 207 200 190 172 151 169 182 161 156 142 123 116 108 92 69 45 29
167 156 211 195 159 149 196 202 212 220 223 217 227 229 132 199 225 212 218 25 48 14 334 313 255 226 211 207 195 192 188 174 177 182 186 173 158 141 129 115 91 80 45 43
182 205 225 259 299 210 180 192 204 211 226 206 237 231 243 249 261 315 325 316 304 282 270 273 282 263 220 199 196 188 186 179 180 189 195 191 166 141 120 97 62 49 43 39
194 231 185 264 243 211 172 198 203 216 233 243 248 255 259 297 294 287 279 281 267 259 251 250 256 269 236 206 197 184 182 179 171 189 197 171 185 143 116 92 72 46 29 40
184 162 149 248 193 225 230 219 223 228 233 229 242 252 256 249 248 248 253 255 252 254 248 244 249 255 248 219 187 194 184 156 174 186 175 169 175 154 135 110 84 65 39 28
201 185 163 237 76 220 236 189 210 226 238 244 263 263 254 259 261 264 263 253 266 270 266 263 259 266 259 230 194 158 156 165 168 175 165 159 170 137 126 118 91 78 59 44
216 203 226 201 200 264 318 225 206 199 242 239 243 253 256 264 266 269 248 248 235 243 250 246 265 285 300 260 186 155 155 155 158 170 164 156 146 140 165 132 105 90 62 43
288 228 196 179 220 217 238 234 185 135 275 244 236 265 260 256 266 269 261 261 291 355 2 2 354 1 338 347 131 137 152 152 158 150 129 118 126 145 161 119 107 102 97 69
178 178 224 208 217 277 252 133 132 159 232 259 236 240 256 247 225 253 16 6 339 249 332 31 18 37 9 79 117 122 131 142 115 114 112 111 107 114 94 85 80 73 54 2
174 170 207 202 257 259 245 151 191 228 274 299 112 134 273 258 294 338 314 315 311 289 267 96 116 102 40 48 138 132 107 99 96 95 98 107 106 90 75 68 34 349 61 55
191 188 176 178 206 243 106 208 255 92 238 155 161 184 222 270 263 226 253 263 256 222 186 165 151 139 77 16 122 126 132 122 112 107 112 96 74 91 99 100 74 27 32 69
274 213 190 101 253 265 46 107 138 162 216 238 228 177 185 244 271 270 265 265 214 206 193 165 154 163 136 78 70 83 91 111 120 116 108 108 98 96 55 51 51 62 52 54
190 151 177 253 285 343 302 231 199 223 233 243 232 195 212 220 256 256 274 269 230 201 181 166 153 140 127 102 89 69 89 111 110 112 110 97 95 82 68 36 56 47 51 43
182 169 173 225 178 188 241 218 193 217 230 232 236 264 230 217 245 236 260 240 207 178 148 142 131 126 118 94 87 61 350 159 129 115 112 102 99 80 69 59 48 49 53 30